BER320E EDDM-EDDH

Flight info

Callsign BER320E
Flight time 0h 55m
Altitude 36000
Route INPUD2N INPUD Y102 UPALA M726 NARUS DCT ABGUS DCT DIRBO/N0375F230 T902 RARUP RARUP6A
Aircraft A320/M-SDE3FGHIRWY/LB1

Departure

Time 2026-05-05 12:11
Airport Munich Airport (EDDM)

Arrival

Time 2026-05-05 13:06
Airport Hamburg Helmut Schmidt Airport (EDDH)
Time Latitude Longitude Altitude Speed Heading
2026-05-05 11:31 48.34997 11.78369 1474 ft 0 kts 83°
2026-05-05 11:33 48.34997 11.78365 1473 ft 0 kts 83°
2026-05-05 12:00 48.34995 11.78337 1471 ft 4 kts 83°
2026-05-05 12:00 48.34992 11.78303 1474 ft 2 kts 83°
2026-05-05 12:00 48.34985 11.78271 1473 ft 4 kts 32°
2026-05-05 12:01 48.34963 11.78264 1478 ft 4 kts 353°
2026-05-05 12:01 48.34947 11.78267 1474 ft 0 kts 353°
2026-05-05 12:03 48.34952 11.78266 1474 ft 3 kts 354°
2026-05-05 12:03 48.34990 11.78260 1480 ft 9 kts 354°
2026-05-05 12:04 48.35070 11.78247 1485 ft 14 kts 353°
2026-05-05 12:04 48.35171 11.78228 1484 ft 15 kts 353°
2026-05-05 12:04 48.35280 11.78209 1485 ft 17 kts 354°
2026-05-05 12:04 48.35352 11.78102 1482 ft 16 kts 283°
2026-05-05 12:05 48.35339 11.77932 1485 ft 17 kts 263°
2026-05-05 12:05 48.35360 11.77781 1481 ft 16 kts 335°
2026-05-05 12:05 48.35482 11.77761 1485 ft 21 kts 353°
2026-05-05 12:05 48.35636 11.77732 1481 ft 23 kts 353°
2026-05-05 12:06 48.35760 11.77741 1481 ft 16 kts 43°
2026-05-05 12:06 48.35826 11.77865 1478 ft 16 kts
2026-05-05 12:06 48.35939 11.77842 1481 ft 16 kts 353°
2026-05-05 12:06 48.35989 11.77949 1481 ft 15 kts 89°
2026-05-05 12:07 48.36004 11.78147 1485 ft 25 kts 82°
2026-05-05 12:07 48.36025 11.78444 1477 ft 29 kts 83°
2026-05-05 12:07 48.36050 11.78749 1475 ft 30 kts 83°
2026-05-05 12:07 48.36073 11.79058 1485 ft 30 kts 84°
2026-05-05 12:08 48.36097 11.79373 1477 ft 31 kts 83°
2026-05-05 12:08 48.36122 11.79693 1474 ft 31 kts 84°
2026-05-05 12:08 48.36147 11.80015 1485 ft 31 kts 83°
2026-05-05 12:08 48.36172 11.80335 1485 ft 31 kts 83°
2026-05-05 12:09 48.36197 11.80565 1481 ft 13 kts 50°
2026-05-05 12:09 48.36287 11.80570 1474 ft 16 kts 351°
2026-05-05 12:09 48.36376 11.80454 1474 ft 18 kts 290°
2026-05-05 12:09 48.36432 11.80256 1482 ft 23 kts 294°
2026-05-05 12:10 48.36495 11.80058 1479 ft 13 kts 310°
2026-05-05 12:10 48.36525 11.79994 1478 ft 7 kts 269°
2026-05-05 12:10 48.36508 11.79762 1478 ft 55 kts 264°
2026-05-05 12:10 48.36433 11.78798 1482 ft 127 kts 263°
2026-05-05 12:11 48.36311 11.77227 1702 ft 163 kts 263°
2026-05-05 12:11 48.36174 11.75515 2470 ft 165 kts 263°
2026-05-05 12:11 48.36044 11.73802 3242 ft 166 kts 264°
2026-05-05 12:11 48.35905 11.71999 3508 ft 189 kts 263°
2026-05-05 12:12 48.35739 11.69921 3774 ft 211 kts 263°
2026-05-05 12:12 48.35692 11.67601 4113 ft 232 kts 285°
2026-05-05 12:12 48.36542 11.65544 4645 ft 246 kts 322°
2026-05-05 12:12 48.38154 11.64412 5049 ft 266 kts 346°
2026-05-05 12:13 48.40008 11.63912 5758 ft 275 kts 353°
2026-05-05 12:13 48.41929 11.63597 6478 ft 282 kts 354°
2026-05-05 12:13 48.43895 11.63269 7261 ft 285 kts 353°
2026-05-05 12:13 48.45871 11.62871 8098 ft 288 kts 351°
2026-05-05 12:14 48.47862 11.62392 8912 ft 292 kts 349°
2026-05-05 12:14 48.49879 11.61850 9707 ft 296 kts 349°
2026-05-05 12:14 48.51915 11.61270 10442 ft 300 kts 348°
2026-05-05 12:14 48.53975 11.60666 11169 ft 303 kts 348°
2026-05-05 12:15 48.56060 11.60050 11891 ft 307 kts 347°
2026-05-05 12:15 48.58125 11.59146 12480 ft 316 kts 338°
2026-05-05 12:15 48.60226 11.57936 12638 ft 339 kts 337°
2026-05-05 12:15 48.62403 11.56665 12971 ft 353 kts 337°
2026-05-05 12:16 48.64716 11.55312 13626 ft 360 kts 337°
2026-05-05 12:16 48.67067 11.53937 14284 ft 364 kts 337°
2026-05-05 12:16 48.69449 11.52551 14912 ft 369 kts 337°
2026-05-05 12:16 48.71856 11.51155 15507 ft 373 kts 337°
2026-05-05 12:17 48.74290 11.49746 16098 ft 377 kts 337°
2026-05-05 12:17 48.76754 11.48321 16685 ft 381 kts 337°
2026-05-05 12:17 48.79243 11.46883 17267 ft 385 kts 337°
2026-05-05 12:17 48.81755 11.45427 17848 ft 389 kts 337°
2026-05-05 12:18 48.84294 11.43949 18378 ft 393 kts 337°
2026-05-05 12:18 48.86857 11.42454 18868 ft 397 kts 337°
2026-05-05 12:18 48.89453 11.40938 19362 ft 401 kts 337°
2026-05-05 12:18 48.92066 11.39410 19877 ft 404 kts 337°
2026-05-05 12:19 48.94662 11.37892 20390 ft 407 kts 337°
2026-05-05 12:19 48.97295 11.36358 20907 ft 410 kts 337°
2026-05-05 12:19 48.99933 11.34822 21448 ft 413 kts 337°
2026-05-05 12:19 49.02626 11.33247 21983 ft 416 kts 337°
2026-05-05 12:20 49.05335 11.31653 22472 ft 419 kts 337°
2026-05-05 12:20 49.08060 11.30046 22967 ft 422 kts 337°
2026-05-05 12:20 49.10806 11.28426 23446 ft 425 kts 337°
2026-05-05 12:20 49.13572 11.26793 23850 ft 428 kts 337°
2026-05-05 12:21 49.16349 11.25150 24246 ft 430 kts 337°
2026-05-05 12:21 49.19164 11.23538 24626 ft 434 kts 340°
2026-05-05 12:21 49.22078 11.22490 25011 ft 438 kts 350°
2026-05-05 12:21 49.25123 11.22161 25401 ft 441 kts 359°
2026-05-05 12:22 49.28199 11.22206 25762 ft 443 kts 359°
2026-05-05 12:22 49.31292 11.22241 26110 ft 446 kts 359°
2026-05-05 12:22 49.34401 11.22271 26453 ft 448 kts 359°
2026-05-05 12:22 49.37528 11.22292 26793 ft 451 kts 358°
2026-05-05 12:23 49.40677 11.22310 27131 ft 453 kts 358°
2026-05-05 12:23 49.43839 11.22327 27482 ft 456 kts 358°
2026-05-05 12:23 49.47021 11.22348 27786 ft 459 kts 358°
2026-05-05 12:23 49.50092 11.22372 28093 ft 461 kts 358°
2026-05-05 12:24 49.53416 11.22398 28414 ft 464 kts 358°
2026-05-05 12:24 49.56645 11.22427 28716 ft 466 kts 358°
2026-05-05 12:24 49.59896 11.22445 29007 ft 468 kts 358°
2026-05-05 12:24 49.63121 11.22457 29291 ft 470 kts 358°
2026-05-05 12:25 49.66402 11.22460 29588 ft 472 kts 358°
2026-05-05 12:25 49.69637 11.22454 29907 ft 473 kts 358°
2026-05-05 12:25 49.72935 11.22444 30148 ft 474 kts 357°
2026-05-05 12:25 49.76238 11.22439 30385 ft 476 kts 357°
2026-05-05 12:26 49.79557 11.22443 30619 ft 477 kts 358°
2026-05-05 12:26 49.82854 11.22461 30836 ft 479 kts 358°
2026-05-05 12:26 49.86067 11.22485 31054 ft 480 kts 358°
2026-05-05 12:26 49.89400 11.22515 31384 ft 478 kts 358°
2026-05-05 12:27 49.92722 11.22548 31747 ft 476 kts 357°
2026-05-05 12:27 49.96021 11.22575 32077 ft 474 kts 357°
2026-05-05 12:27 49.99321 11.22596 32387 ft 473 kts 357°
2026-05-05 12:27 50.02611 11.22616 32688 ft 473 kts 357°
2026-05-05 12:28 50.05855 11.22633 32986 ft 472 kts 357°
2026-05-05 12:28 50.09092 11.22647 33277 ft 472 kts 357°
2026-05-05 12:28 50.12375 11.22663 33576 ft 471 kts 356°
2026-05-05 12:28 50.15645 11.22682 33911 ft 469 kts 356°
2026-05-05 12:29 50.18907 11.22705 34185 ft 468 kts 356°
2026-05-05 12:29 50.22063 11.22729 34429 ft 468 kts 356°
2026-05-05 12:29 50.25319 11.22750 34667 ft 468 kts 356°
2026-05-05 12:29 50.28574 11.22766 34896 ft 468 kts 356°
2026-05-05 12:30 50.31830 11.22777 35111 ft 468 kts 356°
2026-05-05 12:30 50.35083 11.22790 35326 ft 467 kts 355°
2026-05-05 12:30 50.38312 11.22473 35543 ft 464 kts 350°
2026-05-05 12:30 50.41526 11.21994 35752 ft 464 kts 350°
2026-05-05 12:31 50.47937 11.21007 35855 ft 462 kts 350°
2026-05-05 12:31 50.54280 11.19996 35869 ft 461 kts 350°
2026-05-05 12:32 50.60678 11.18966 35860 ft 463 kts 350°
2026-05-05 12:32 50.67096 11.17941 35866 ft 463 kts 350°
2026-05-05 12:33 50.73513 11.16937 35866 ft 463 kts 350°
2026-05-05 12:33 50.79933 11.15931 35873 ft 464 kts 350°
2026-05-05 12:34 50.86351 11.14907 35878 ft 464 kts 350°
2026-05-05 12:34 50.92763 11.13879 35879 ft 463 kts 349°
2026-05-05 12:35 50.99143 11.12854 35878 ft 464 kts 349°
2026-05-05 12:35 51.05559 11.11822 35892 ft 463 kts 349°
2026-05-05 12:36 51.11971 11.10793 35892 ft 463 kts 349°
2026-05-05 12:36 51.18376 11.09757 35890 ft 462 kts 349°
2026-05-05 12:37 51.24777 11.08719 35889 ft 462 kts 349°
2026-05-05 12:37 51.31171 11.07678 35904 ft 462 kts 349°
2026-05-05 12:38 51.37509 11.06645 35900 ft 460 kts 349°
2026-05-05 12:38 51.43881 11.05599 35901 ft 460 kts 349°
2026-05-05 12:39 51.50250 11.04553 35898 ft 460 kts 349°
2026-05-05 12:39 51.56618 11.03500 35910 ft 460 kts 349°
2026-05-05 12:40 51.62983 11.02467 35901 ft 459 kts 349°
2026-05-05 12:40 51.69334 11.01419 35903 ft 458 kts 348°
2026-05-05 12:41 51.75635 11.00374 35898 ft 458 kts 348°
2026-05-05 12:41 51.81966 10.99322 35912 ft 457 kts 348°
2026-05-05 12:42 51.88288 10.98266 35906 ft 456 kts 348°
2026-05-05 12:42 51.94585 10.97218 35901 ft 456 kts 348°
2026-05-05 12:43 52.00905 10.96161 35895 ft 455 kts 348°
2026-05-05 12:43 52.07199 10.95103 35904 ft 454 kts 348°
2026-05-05 12:44 52.13477 10.94043 35347 ft 452 kts 348°
2026-05-05 12:44 52.16605 10.93515 34653 ft 452 kts 348°
2026-05-05 12:44 52.19688 10.92991 34110 ft 450 kts 348°
2026-05-05 12:45 52.22784 10.92467 33580 ft 445 kts 347°
2026-05-05 12:45 52.25853 10.91948 33030 ft 442 kts 348°
2026-05-05 12:45 52.28901 10.91433 32513 ft 438 kts 348°
2026-05-05 12:45 52.31921 10.90922 31987 ft 435 kts 348°
2026-05-05 12:46 52.34917 10.90413 31465 ft 432 kts 348°
2026-05-05 12:46 52.37896 10.89903 30945 ft 429 kts 348°
2026-05-05 12:46 52.40846 10.89399 30440 ft 427 kts 348°
2026-05-05 12:46 52.43799 10.88894 29934 ft 424 kts 348°
2026-05-05 12:47 52.46725 10.88391 29371 ft 421 kts 348°
2026-05-05 12:47 52.49627 10.87888 28833 ft 418 kts 348°
2026-05-05 12:47 52.52511 10.87391 28388 ft 414 kts 348°
2026-05-05 12:47 52.55356 10.86904 27948 ft 409 kts 348°
2026-05-05 12:48 52.58171 10.86425 27498 ft 405 kts 348°
2026-05-05 12:48 52.60960 10.85947 27032 ft 401 kts 348°
2026-05-05 12:48 52.63692 10.85480 26588 ft 398 kts 348°
2026-05-05 12:48 52.66432 10.85009 26156 ft 395 kts 348°
2026-05-05 12:49 52.69155 10.84536 25717 ft 392 kts 348°
2026-05-05 12:49 52.71852 10.84065 25286 ft 388 kts 349°
2026-05-05 12:49 52.74530 10.83599 24860 ft 385 kts 349°
2026-05-05 12:49 52.77184 10.83138 24454 ft 382 kts 349°
2026-05-05 12:50 52.79821 10.82679 24038 ft 379 kts 349°
2026-05-05 12:50 52.82433 10.82227 23619 ft 376 kts 349°
2026-05-05 12:50 52.85027 10.81775 23157 ft 373 kts 349°
2026-05-05 12:50 52.87598 10.81327 22691 ft 370 kts 349°
2026-05-05 12:51 52.90041 10.80441 22250 ft 359 kts 334°
2026-05-05 12:51 52.92174 10.78443 21801 ft 348 kts 316°
2026-05-05 12:51 52.93833 10.75613 21331 ft 342 kts 307°
2026-05-05 12:51 52.95376 10.72615 20864 ft 340 kts 307°
2026-05-05 12:52 52.96906 10.69632 20427 ft 339 kts 307°
2026-05-05 12:52 52.98428 10.66669 20001 ft 337 kts 308°
2026-05-05 12:52 52.99944 10.63721 19576 ft 335 kts 308°
2026-05-05 12:52 53.01457 10.60783 19161 ft 333 kts 308°
2026-05-05 12:53 53.02957 10.57864 18765 ft 332 kts 308°
2026-05-05 12:53 53.04448 10.54955 18373 ft 330 kts 308°
2026-05-05 12:53 53.05932 10.52056 17959 ft 328 kts 308°
2026-05-05 12:53 53.07403 10.49179 17428 ft 325 kts 308°
2026-05-05 12:54 53.10311 10.43480 16229 ft 321 kts 308°
2026-05-05 12:54 53.11752 10.40655 15652 ft 319 kts 308°
2026-05-05 12:54 53.13165 10.37881 15097 ft 317 kts 308°
2026-05-05 12:55 53.14587 10.35079 14534 ft 316 kts 308°
2026-05-05 12:55 53.15999 10.32292 13998 ft 314 kts 308°
2026-05-05 12:55 53.17406 10.29520 13428 ft 312 kts 308°
2026-05-05 12:55 53.18804 10.26759 12839 ft 310 kts 308°
2026-05-05 12:56 53.20189 10.24024 12290 ft 308 kts 308°
2026-05-05 12:56 53.21562 10.21311 11758 ft 304 kts 308°
2026-05-05 12:56 53.22919 10.18625 11212 ft 301 kts 308°
2026-05-05 12:56 53.24266 10.15955 10771 ft 299 kts 308°
2026-05-05 12:57 53.25584 10.13341 10639 ft 290 kts 308°
2026-05-05 12:57 53.26856 10.10817 10398 ft 286 kts 308°
2026-05-05 12:57 53.28134 10.08276 10103 ft 285 kts 308°
2026-05-05 12:57 53.29403 10.05747 9756 ft 283 kts 307°
2026-05-05 12:58 53.30667 10.03225 9352 ft 282 kts 307°
2026-05-05 12:58 53.31923 10.00718 8974 ft 280 kts 308°
2026-05-05 12:58 53.33170 9.98231 8600 ft 278 kts 308°
2026-05-05 12:58 53.34407 9.95760 8228 ft 276 kts 308°
2026-05-05 12:59 53.35565 9.93438 7872 ft 274 kts 308°
2026-05-05 12:59 53.36841 9.90877 7450 ft 273 kts 308°
2026-05-05 12:59 53.38054 9.88438 7062 ft 272 kts 308°
2026-05-05 13:00 53.40434 9.83650 6360 ft 267 kts 308°
2026-05-05 13:00 53.41630 9.81276 5935 ft 266 kts 311°
2026-05-05 13:01 53.45432 9.74857 4435 ft 247 kts 314°
2026-05-05 13:01 53.46663 9.72925 3971 ft 238 kts 327°
2026-05-05 13:01 53.48189 9.72060 3528 ft 230 kts 359°
2026-05-05 13:01 53.49703 9.72613 3147 ft 221 kts 29°
2026-05-05 13:02 53.50495 9.73619 3009 ft 210 kts 47°
2026-05-05 13:02 53.51389 9.75395 3036 ft 189 kts 49°
2026-05-05 13:02 53.52207 9.77024 3001 ft 178 kts 49°
2026-05-05 13:02 53.52999 9.78608 2838 ft 179 kts 50°
2026-05-05 13:03 53.54088 9.80791 2538 ft 186 kts 49°
2026-05-05 13:03 53.54652 9.81923 2362 ft 188 kts 50°
2026-05-05 13:03 53.55482 9.83592 2112 ft 182 kts 49°
2026-05-05 13:03 53.56288 9.85211 1862 ft 180 kts 50°
2026-05-05 13:04 53.57072 9.86790 1611 ft 176 kts 50°
2026-05-05 13:04 53.57836 9.88342 1385 ft 167 kts 50°
2026-05-05 13:04 53.58541 9.89752 1213 ft 147 kts 50°
2026-05-05 13:04 53.59173 9.91027 944 ft 138 kts 50°
2026-05-05 13:05 53.59778 9.92230 759 ft 133 kts 50°
2026-05-05 13:05 53.60379 9.93456 561 ft 137 kts 51°
2026-05-05 13:05 53.60991 9.94671 382 ft 137 kts 51°
2026-05-05 13:05 53.61595 9.95900 212 ft 134 kts 50°
2026-05-05 13:06 53.62164 9.97054 49 ft 127 kts 51°
2026-05-05 13:06 53.62657 9.98054 42 ft 90 kts 50°
2026-05-05 13:06 53.62970 9.98680 45 ft 55 kts 50°
2026-05-05 13:06 53.63086 9.99003 43 ft 22 kts 77°
2026-05-05 13:07 53.63085 9.99208 47 ft 14 kts 101°
2026-05-05 13:07 53.63083 9.99349 47 ft 10 kts 77°
2026-05-05 13:07 53.63088 9.99372 44 ft 0 kts 67°
2026-05-05 13:07 53.63091 9.99380 45 ft 4 kts 65°
2026-05-05 13:08 53.63121 9.99461 46 ft 12 kts 55°
2026-05-05 13:08 53.63175 9.99577 46 ft 13 kts 51°
2026-05-05 13:08 53.63229 9.99685 48 ft 11 kts 49°
2026-05-05 13:08 53.63291 9.99789 48 ft 15 kts 47°
2026-05-05 13:09 53.63362 9.99930 48 ft 16 kts 50°
2026-05-05 13:09 53.63430 10.00077 48 ft 15 kts 67°
2026-05-05 13:09 53.63372 10.00163 47 ft 13 kts 179°
2026-05-05 13:09 53.63300 10.00170 47 ft 10 kts 176°
2026-05-05 13:10 53.63245 10.00212 48 ft 9 kts 126°
2026-05-05 13:10 53.63243 10.00308 48 ft 9 kts 85°
2026-05-05 13:10 53.63245 10.00350 48 ft 1 kts 86°
2026-05-05 13:10 53.63245 10.00353 48 ft 0 kts 86°